Regional Weather Roundup
Issued by NWS

Home | Current Version | Previous Version | Graphics & Text | Print | Product List | Glossary On
Versions: 1 2 3 4 5 6 7 8 9 10 11 12 13 14 15 16 17 18 19 20 21 22 23 24 25 26 27 28 29 30 31 32 33 34 35 36 37 38 39 40 41 42 43 44 45 46 47 48 49 50
000
ASUS45 KABQ 261601
RWRNM
WEATHER ROUNDUP FOR NEW MEXICO
NATIONAL WEATHER SERVICE ALBUQUERQUE NM
900 AM MST WED NOV 26 2014

NOTE: "FAIR" MEANS FEW OR NO CLOUDS BELOW 12,000 FEET AGL WITH NO
       SIGNIFICANT WEATHER OR OBSTRUCTIONS TO VISION.

      THIS PRODUCT IS RELEASED AS TWO VERSIONS.  ONE VERSION NEAR
      THE TOP OF THE HOUR CONTAINING PRELIMINARY DATA FROM ALBUQUERQUE
      AND OTHER STATIONS.  A FINAL VERSION WITH ADDITIONAL DATA IS
      ISSUED ABOUT 10 MINUTES AFTER THE HOUR.

NMZ501-503-504-510>518-261700-
NORTHWEST PLATEAU/NORTHCENTRAL MOUNTAINS

CITY           SKY/WX    TMP DP  RH WIND       PRES   REMARKS
FARMINGTON     SUNNY     35  10  35 SW3       30.38R
SANTA FE       SUNNY     39  14  36 SW9       30.34R WCI  33
TAOS           MOSUNNY   25  16  68 CALM      30.36R

$$
NMZ402-403-502-505>509-261700-
WESTCENTRAL MOUNTAINS/SOUTHWEST MOUNTAINS

CITY           SKY/WX    TMP DP  RH WIND       PRES   REMARKS
GALLUP         SUNNY     34   5  29 W5        30.44R WCI  30
SILVER CITY    SUNNY     48  19  32 CALM      30.39R

$$
NMZ407-409-411-412-261700-
SOUTHERN DESERTS

CITY           SKY/WX    TMP DP  RH WIND       PRES   REMARKS
DEMING         SUNNY     42  10  27 W3        30.38R
HOLLOMAN AFB   MOSUNNY   41   9  26 CALM      30.36R
T OR C         SUNNY     42  13  30 CALM      30.37R

$$
NMZ519>523-261700-
CENTRAL VALLEYS/CENTRAL HIGHLANDS

CITY           SKY/WX    TMP DP  RH WIND       PRES   REMARKS
ALBUQUERQUE    MOSUNNY   43  11  27 S5        30.39R
DOUBLE EAGLE   MOSUNNY   41  10  28 CALM      30.39R
CLINES CORNERS SUNNY     38  15  39 NW15      30.32R WCI  29
BELEN          FAIR      41   9  27 NE3       30.40R
SOCORRO        NOT AVBL

$$
NMZ524>526-539-540-261700-
SOUTHCENTRAL MOUNTAINS

CITY           SKY/WX    TMP DP  RH WIND       PRES   REMARKS
RUIDOSO        SUNNY     46  19  34 NW15G22   30.36S

$$
NMZ527>531-261700-
NORTHEAST HIGHLANDS/NORTHEAST PLAINS

CITY           SKY/WX    TMP DP  RH WIND       PRES   REMARKS
LAS VEGAS      MOSUNNY   43  20  39 NW6       30.27R
RATON          MOSUNNY   39  24  55 N3        30.22R
CLAYTON        SUNNY     37  25  61 N15       30.24S WCI  28

$$
NMZ532>537-261700-
EASTCENTRAL PLAINS

CITY           SKY/WX    TMP DP  RH WIND       PRES   REMARKS
TUCUMCARI      PTSUNNY   39  27  62 E8        30.30R WCI  33
CANNON AFB     SUNNY     40  28  61 NE13      30.30R WCI  32
CLOVIS AIRPORT SUNNY     39  27  60 NE14      30.30R WCI  31

$$
NMZ028-029-538-261700-
SOUTHEAST PLAINS

CITY           SKY/WX    TMP DP  RH WIND       PRES   REMARKS
ROSWELL        SUNNY     49  17  28 SE5       30.27R
CARLSBAD       SUNNY     50  16  25 CALM      30.26R
HOBBS          SUNNY     57  19  23 NW23G30   30.26R


$$



USA.gov is the U.S. government's official web portal to all federal, state and local government web resources and services.